User: anonymous   Login
Location: Stoke Bliss
(52.2667°N, 2.5167°W)
Time: 02:45:25
(UTC+00:00)
Language:

SL-08 RB Rocket - Orbit

View from above orbital plane
View from above orbital plane
View from above satellite
View from above satellite

Ground track
Ground track

The orbit data is extracted from the following two-line orbital elements,

1 26387U 00033D   21136.98489993  .00000066  00000-0  19202-4 0  9994
2 26387  97.7762 169.0880 0027905  98.1623 323.6706 14.68700827375409
Epoch (UTC): 16 May 2021 23:38:15
Eccentricity: 0.0027905
inclination: 97.7762°
perigee height: 645 km
apogee height: 685 km
right ascension of ascending node: 169.0880°
argument of perigee: 98.1623°
revolutions per day: 14.68700827
mean anomaly at epoch: 323.6706°
orbit number at epoch: 37540

The dashed part of the orbit path shows where the satellite is in the earth's shadow,  

DLR